TimeCDT,TemperatureF,Dew PointF,Humidity,Sea Level PressureIn,VisibilityMPH,Wind Direction,Wind SpeedMPH,Gust SpeedMPH,PrecipitationIn,Events,Conditions,WindDirDegrees,DateUTC
12:53 AM,68.0,57.9,70,29.49,10.0,South,15.0,21.9,N/A,,Clear,180,2012-10-17 05:53:00
1:53 AM,66.9,57.9,73,29.47,10.0,South,13.8,-,N/A,,Clear,180,2012-10-17 06:53:00
2:53 AM,66.0,59.0,78,29.46,10.0,South,12.7,-,N/A,,Clear,190,2012-10-17 07:53:00
3:53 AM,66.0,59.0,78,29.42,10.0,South,15.0,-,N/A,,Clear,180,2012-10-17 08:53:00
4:53 AM,66.0,60.1,81,29.39,10.0,South,17.3,25.3,N/A,,Clear,180,2012-10-17 09:53:00
5:53 AM,66.0,61.0,84,29.38,10.0,South,8.1,-,N/A,,Clear,190,2012-10-17 10:53:00
6:53 AM,66.0,61.0,84,29.37,10.0,South,12.7,19.6,N/A,,Clear,190,2012-10-17 11:53:00
7:53 AM,66.9,60.1,79,29.39,10.0,SSW,11.5,18.4,N/A,,Clear,210,2012-10-17 12:53:00
8:53 AM,68.0,57.9,70,29.41,10.0,WSW,9.2,-,N/A,,Clear,240,2012-10-17 13:53:00
9:53 AM,69.1,55.0,61,29.48,10.0,NW,10.4,20.7,N/A,,Clear,320,2012-10-17 14:53:00
10:53 AM,73.0,59.0,61,29.51,10.0,NNW,13.8,23.0,N/A,,Clear,330,2012-10-17 15:53:00
11:53 AM,75.0,59.0,57,29.54,10.0,NNW,10.4,20.7,N/A,,Clear,330,2012-10-17 16:53:00
12:53 PM,75.0,55.0,50,29.59,10.0,North,13.8,24.2,N/A,,Clear,350,2012-10-17 17:53:00
1:53 PM,75.9,52.0,43,29.61,10.0,NNW,12.7,25.3,N/A,,Clear,330,2012-10-17 18:53:00
2:53 PM,75.0,44.1,33,29.65,10.0,NNW,12.7,27.6,N/A,,Clear,330,2012-10-17 19:53:00
3:53 PM,75.9,42.1,30,29.65,10.0,North,8.1,17.3,N/A,,Clear,350,2012-10-17 20:53:00
4:53 PM,75.0,35.1,23,29.67,10.0,NNW,11.5,23.0,N/A,,Clear,330,2012-10-17 21:53:00
6:53 PM,69.1,34.0,27,29.71,10.0,NW,5.8,-,N/A,,Clear,320,2012-10-17 23:53:00
7:53 PM,66.9,26.1,21,29.76,10.0,NNW,6.9,18.4,N/A,,Clear,330,2012-10-18 00:53:00
8:53 PM,64.0,24.1,22,29.78,10.0,NNW,6.9,-,N/A,,Clear,330,2012-10-18 01:53:00
9:53 PM,60.1,25.0,26,29.81,10.0,NNW,3.5,-,N/A,,Clear,330,2012-10-18 02:53:00
10:53 PM,57.9,25.0,28,29.83,10.0,Calm,Calm,-,N/A,,Clear,0,2012-10-18 03:53:00
11:53 PM,54.0,28.0,37,29.85,10.0,Calm,Calm,-,N/A,,Clear,0,2012-10-18 04:53:00